TimeMST,TemperatureF,Dew PointF,Humidity,Sea Level PressureIn,VisibilityMPH,Wind Direction,Wind SpeedMPH,Gust SpeedMPH,PrecipitationIn,Events,Conditions,WindDirDegrees,DateUTC
12:53 AM,75.9,35.1,23,29.95,10.0,ESE,6.9,-,N/A,,Clear,120,2012-10-04 07:53:00
1:53 AM,72.0,34.0,25,29.96,10.0,SE,4.6,-,N/A,,Clear,130,2012-10-04 08:53:00
2:53 AM,66.0,36.0,33,29.96,10.0,Calm,Calm,-,N/A,,Clear,0,2012-10-04 09:53:00
3:53 AM,66.0,36.0,33,29.97,10.0,Calm,Calm,-,N/A,,Clear,0,2012-10-04 10:53:00
4:53 AM,62.1,36.0,38,29.99,10.0,Calm,Calm,-,N/A,,Clear,0,2012-10-04 11:53:00
5:53 AM,66.0,35.1,32,30.00,10.0,SE,8.1,-,N/A,,Clear,140,2012-10-04 12:53:00
6:53 AM,66.9,35.1,31,30.02,10.0,SSE,5.8,-,N/A,,Clear,160,2012-10-04 13:53:00
7:53 AM,71.1,34.0,26,30.03,10.0,SSE,8.1,-,N/A,,Clear,150,2012-10-04 14:53:00
8:53 AM,79.0,35.1,20,30.03,10.0,South,3.5,-,N/A,,Clear,190,2012-10-04 15:53:00
9:53 AM,84.0,35.1,17,30.04,10.0,SE,4.6,-,N/A,,Clear,140,2012-10-04 16:53:00
10:53 AM,88.0,33.1,14,30.02,10.0,Calm,Calm,-,N/A,,Clear,0,2012-10-04 17:53:00
11:53 AM,91.0,34.0,13,30.00,10.0,Variable,5.8,-,N/A,,Clear,0,2012-10-04 18:53:00
12:53 PM,93.0,34.0,12,29.96,10.0,Variable,3.5,-,N/A,,Clear,0,2012-10-04 19:53:00
1:53 PM,93.9,34.0,12,29.94,10.0,South,8.1,19.6,N/A,,Clear,180,2012-10-04 20:53:00
2:53 PM,93.0,35.1,13,29.94,10.0,SW,11.5,-,N/A,,Clear,220,2012-10-04 21:53:00
3:53 PM,93.0,35.1,13,29.93,10.0,WSW,11.5,-,N/A,,Clear,240,2012-10-04 22:53:00
4:53 PM,91.0,33.1,13,29.94,10.0,SW,11.5,-,N/A,,Clear,230,2012-10-04 23:53:00
5:53 PM,88.0,34.0,15,29.94,10.0,SW,6.9,-,N/A,,Clear,220,2012-10-05 00:53:00
6:53 PM,84.0,37.9,19,29.95,10.0,SW,9.2,-,N/A,,Clear,220,2012-10-05 01:53:00
7:53 PM,82.9,39.9,22,29.96,10.0,SW,11.5,-,N/A,,Clear,220,2012-10-05 02:53:00
8:53 PM,80.1,39.9,24,29.96,10.0,SSW,6.9,-,N/A,,Clear,210,2012-10-05 03:53:00
9:53 PM,78.1,39.9,25,29.97,10.0,SW,5.8,-,N/A,,Clear,230,2012-10-05 04:53:00
10:53 PM,73.9,39.9,29,29.98,10.0,SSE,5.8,-,N/A,,Clear,160,2012-10-05 05:53:00
11:53 PM,71.1,41.0,34,29.97,10.0,WNW,3.5,-,N/A,,Clear,290,2012-10-05 06:53:00